| time (UTC) | temp C | wind direction | speed KPH | gust KPH | rain 1hr cm | rain 24hr cm | rain mn cm | humidity % | barometer mb |
| 20260904233204 | 27 | 117 | 0.0 | 0.0 | 0.00 | 1.40 | 0.00 | 93 | 1012.4 |
| 20260904230204 | 27 | 212 | 0.0 | 4.8 | 0.00 | 1.40 | 0.00 | 92 | 1012.5 |
| 20260904223203 | 27 | 169 | 0.0 | 0.0 | 0.00 | 1.40 | 0.00 | 90 | 1012.5 |
| 20260904213203 | 27 | 281 | 0.0 | 0.0 | 0.00 | 1.40 | 0.00 | 87 | 1012.4 |
| 20260904210203 | 26 | 281 | 0.0 | 0.0 | 0.00 | 1.40 | 0.00 | 89 | 1012.1 |
| 20260904203203 | 26 | 22 | 0.0 | 0.0 | 0.00 | 1.40 | 0.00 | 90 | 1012.2 |
| 20260904200203 | 28 | 127 | 0.0 | 3.2 | 0.00 | 1.40 | 0.00 | 84 | 1012.5 |
| 20260904183202 | 28 | 231 | 3.2 | 8.0 | 0.00 | 1.40 | 0.00 | 86 | 1012.6 |
| 20260904180202 | 30 | 137 | 4.8 | 12.9 | 0.00 | 1.40 | 0.00 | 80 | 1013.0 |
| 20260904173202 | 32 | 123 | 4.8 | 8.0 | 0.00 | 1.40 | 0.00 | 73 | 1013.4 |
| 20260904170202 | 32 | 28 | 0.0 | 4.8 | 0.00 | 1.40 | 0.00 | 74 | 1013.7 |
| 20260904163202 | 31 | 329 | 0.0 | 0.0 | 0.00 | 1.40 | 0.00 | 77 | 1014.4 |
| 20260904153202 | 29 | 46 | 0.0 | 0.0 | 0.00 | 1.40 | 0.00 | 87 | 1014.3 |
| 20260904150202 | 29 | 1 | 0.0 | 0.0 | 0.00 | 1.40 | 0.00 | 85 | 1014.3 |
| 20260904143202 | 29 | 86 | 0.0 | 3.2 | 0.00 | 1.40 | 0.00 | 85 | 1014.3 |
| 20260904140202 | 27 | 306 | 0.0 | 3.2 | 0.00 | 1.40 | 0.00 | 95 | 1014.1 |
| 20260904133202 | 25 | 301 | 0.0 | 0.0 | 0.00 | 1.40 | 0.00 | 95 | 1013.9 |
| 20260904130201 | 25 | 289 | 0.0 | 0.0 | 0.00 | 1.40 | 0.00 | 95 | 1013.8 |
| 20260904123202 | 24 | 289 | 0.0 | 0.0 | 0.00 | 1.40 | 0.00 | 95 | 1013.6 |
| 20260904120202 | 23 | 288 | 0.0 | 0.0 | 0.00 | 1.40 | 0.00 | 95 | 1013.5 |
| 20260904113201 | 23 | 288 | 0.0 | 0.0 | 0.00 | 1.40 | 0.00 | 95 | 1013.2 |
| 20260904110201 | 23 | 288 | 0.0 | 0.0 | 0.00 | 1.40 | 0.00 | 95 | 1013.0 |
| 20260904103201 | 23 | 288 | 0.0 | 0.0 | 0.00 | 1.40 | 0.00 | 94 | 1012.9 |
| 20260904100201 | 23 | 288 | 0.0 | 0.0 | 0.00 | 1.40 | 0.00 | 94 | 1012.6 |
| 20260904093201 | 23 | 288 | 0.0 | 0.0 | 0.00 | 1.40 | 0.00 | 94 | 1012.5 |
| 20260904090201 | 23 | 289 | 0.0 | 0.0 | 0.00 | 1.40 | 0.00 | 94 | 1012.6 |
| 20260904083201 | 23 | 289 | 0.0 | 0.0 | 0.00 | 1.42 | 0.00 | 94 | 1012.5 |
| 20260904080201 | 23 | 289 | 0.0 | 0.0 | 0.00 | 1.42 | 0.00 | 94 | 1012.5 |
| 20260904073200 | 23 | 271 | 0.0 | 0.0 | 0.00 | 1.42 | 0.00 | 94 | 1012.5 |
| 20260904070200 | 23 | 271 | 0.0 | 0.0 | 0.00 | 1.42 | 0.00 | 94 | 1012.6 |
| 20260904060200 | 23 | 96 | 0.0 | 0.0 | 0.00 | 1.42 | 0.00 | 95 | 1013.1 |
| 20260904053200 | 23 | 96 | 0.0 | 0.0 | 0.03 | 1.42 | 0.00 | 95 | 1013.4 |
| 20260904043200 | 23 | 98 | 0.0 | 0.0 | 1.37 | 1.40 | 1.40 | 95 | 1014.0 |
| 20260904040159 | 25 | 124 | 3.2 | 8.0 | 0.61 | 0.64 | 0.64 | 93 | 1014.7 |
| 20260904033159 | 26 | 172 | 0.0 | 0.0 | 0.00 | 0.03 | 0.03 | 92 | 1013.4 |
| 20260904030159 | 26 | 172 | 0.0 | 0.0 | 0.00 | 0.03 | 0.03 | 92 | 1013.3 |
| 20260904023159 | 26 | 172 | 0.0 | 0.0 | 0.00 | 0.03 | 0.03 | 93 | 1013.3 |
| 20260904020159 | 26 | 172 | 0.0 | 0.0 | 0.00 | 0.03 | 0.03 | 92 | 1013.3 |
| 20260904013159 | 26 | 172 | 0.0 | 0.0 | 0.00 | 0.03 | 0.03 | 91 | 1013.0 |
| 20260904003159 | 27 | 172 | 0.0 | 0.0 | 0.00 | 0.03 | 0.03 | 89 | 1012.7 |
| 20260904000159 | 28 | 172 | 0.0 | 0.0 | 0.00 | 0.03 | 0.03 | 88 | 1012.3 |